map of YRQ home
Great Circle Mapper logo
YRQ - Airport
Location
City:  Trois-Rivières, Québec, Canada
ICAO / IATA:CYRQ / YRQ

Details
Type:Airport (Airfield)
Use:Public/Civil, International (customs port of entry)
Latitude:46°21'10"N (46.352779)
Longitude:72°40'46"W (-72.679443)
Datum:WGS 1984
Elevation:199 ft (61 m)
Variation:15.4°W (WMM2015 magnetic declination)
Runways:1
Longest:6000 × 150 ft (1829 × 45.5 m), paved

Time
Time Zone:UTC-5 (DST-4)
Local Time:

Weather
METAR:CYRQ 210859Z AUTO 04003KT 9SM -SN OVC014 M10/M11 A3037 RMK SLP289
TAF:CYRQ 210738Z 2108/2120 04005KT 6SM BR FEW006 OVC015
TEMPO 2108/2115 21/2SM BR BKN006 OVC015
FM211500 05005KT P6SM BKN015
TEMPO 2115/2120 5SM BR
RMK FCST BASED ON AUTO OBS. NXT FCST BY 211400Z

Related Locations
Nearby:
Farthest:YDEK: 11487 mi / 18486 km
Denmark, WA, AU

Find:

   beyond  
but within

Other Information
Maps:
NOTAMs:
Links:
Sources:

  
flag of Canada
flag of Québec
  

Airport Diagram

Airport diagram for YRQ

Airport diagram PDF

Sectional Chart

Flight Planning
at skyvector.com

Satellite Image

Google Maps Satellite View

 

Copyright © 2004-2014 Karl L. Swartz. All rights reserved.
The Great Circle Mapper name and logo are trademarks of the Great Circle Mapper.
All other trademarks mentioned herein belong to their respective owners.
Please see credits for attibutions and further copyright information.

  Follow gcmap on Facebook Follow gcmap on Twitter

hCard Microformat

Geo Microformat